Miscellaneous Local Product
Issued by NWS North Platte, NE

Home | Current Version | Previous Version | Text Only | Print | Product List | Glossary On
Versions: 1 2 3 4 5 6 7 8 9 10 11 12 13 14 15 16 17 18 19 20 21 22 23 24 25 26 27 28 29 30 31 32 33 34 35 36 37 38 39 40 41 42 43 44 45 46 47 48 49 50
292
AXUS43 KLBF 200110
MISLBF


WESTERN AND NORTH CENTRAL NEBRASKA HOURLY WEATHER ROUNDUP
NATIONAL WEATHER SERVICE NORTH PLATTE NE
800 PM CDT THU OCT 19 2017

NOTE: "FAIR" INDICATES FEW OR NO CLOUDS BELOW 12,000 FEET WITH NO
SIGNIFICANT WEATHER AND/OR OBSTRUCTIONS TO VISIBILITY.

NOTE: STATIONS NOT REPORTING VARIABLES SUCH AS SKY/WEATHER OR
PRESSURE ARE PROVIDED BY RAWS AND APRS NETWORKS AND ARE NOT UNDER
NATIONAL WEATHER SERVICE QUALITY CONTROL.

...OBSERVATIONS IN AND NEAR THE EASTERN PANHANDLE OF NEBRASKA...

CITY           SKY/WX    TMP DP  RH WIND       PRES   REMARKS
PINE RIDGE     CLEAR     61  34  36 CALM      29.80S
GORDON         FAIR      65  38  36 S6        29.82S
CHADRON        CLOUDY    63  27  25 S8        29.77F
ALLIANCE       CLOUDY    56  38  50 S8        29.84R
SIDNEY         CLOUDY    59  35  40 S12       29.89S
CRESCENT LAKE    N/A     66  41  40 S8          N/A
$$

...OBSERVATIONS IN NORTHERN NEBRASKA AND FAR SOUTHERN SOUTH DAKOTA...

CITY           SKY/WX    TMP DP  RH WIND       PRES   REMARKS
WINNER         FAIR      72  45  37 S18G29    29.79S
VALENTINE      CLEAR     71  42  35 S12       29.83S
THEDFORD       CLEAR     65  46  50 SE10      29.89S
AINSWORTH      CLEAR     64  47  54 S10       29.87R
O`NEILL        CLEAR     65  48  54 S8        29.89R
ORD            CLEAR     69  49  48 SE10      29.89S
BROKEN BOW     CLEAR     64  50  60 SE7       29.90S
VALENTINE NWR    N/A     65  41  41 S6G16       N/A
HALSEY           N/A     69  45  41 SE6G13      N/A
BUTTE            N/A     64  46  53 SE6         N/A
CHAMBERS         N/A     63  46  52 CALM        N/A
EWING            N/A     68  48  48 S6          N/A
$$

...OBSERVATIONS IN SOUTHWEST NEBRASKA AND FAR NORTHEAST COLORADO...

CITY           SKY/WX    TMP DP  RH WIND       PRES   REMARKS
HOLYOKE        FAIR      61  41  48 SE9       29.89S
IMPERIAL       CLOUDY    63  42  46 SE12      29.89S
OGALLALA       CLOUDY    69  44  39 SE6       29.88R
NORTH PLATTE   CLEAR     63  47  55 E12       29.89S
MCCOOK         CLOUDY    68  45  43 S12       29.90S
LEXINGTON      CLEAR     64  46  52 S8        29.92R
STAPLETON        N/A     63  48  57 CALM        N/A
GOTHENBURG       N/A     73  44  36 S5          N/A
CALLAWAY         N/A     67  50  53 S8          N/A
$$

...OBSERVATIONS IN CENTRAL LINCOLN COUNTY AREA...

CITY           SKY/WX    TMP DP  RH WIND       PRES   REMARKS
N.P. AIRPORT   CLEAR     63  47  55 E12       29.89S
N.P. DOWNTOWN    N/A     68  47  47 CALM        N/A
N.P. SOUTHEAST   N/A     67  47  48 CALM        N/A
N.P. HILLCREST   N/A     69  47  46 SE10        N/A
$$

...SOME OBSERVATIONS FROM AROUND THE REGION...

CITY           SKY/WX    TMP DP  RH WIND       PRES   REMARKS
DENVER         CLOUDY    56  30  37 S6        29.91S
LIMON          CLOUDY    52  35  52 S7        29.97S
ASPEN          CLOUDY    54  24  31 CALM      30.08R
LARAMIE        CLOUDY    54  23  30 W5        30.00F
CASPER         CLOUDY    55  18  23 SW12      29.85F
CHEYENNE       CLOUDY    57  33  40 W7        29.96S
SCOTTSBLUFF    CLOUDY    58  30  34 E6        29.83S
GRAND ISLAND   CLEAR     69  51  52 S13       29.94S
OMAHA          PTCLDY    70  53  54 S12       29.97S
SIOUX FALLS    CLEAR     68  51  54 S15G23    29.89R
PIERRE         CLEAR     65  47  52 SE8       29.71S
RAPID CITY     CLEAR     62  20  19 CALM      29.74F
BISMARCK       CLEAR     60  39  45 S10       29.70S
KANSAS CITY    CLOUDY    62  53  72 S10       30.06R
HILL CITY      CLEAR     70  41  34 S10       29.95R
WICHITA        MOCLDY    67  51  56 SE14      30.04R
DODGE CITY     CLOUDY    67  42  40 SE15      30.00R
OKLAHOMA CITY  MOCLDY    65  48  54 S10       30.07R
DALLAS         CLOUDY    75  53  46 SE10      30.06R
AMARILLO       PTCLDY    68  49  50 S15       30.03R
$$




USA.gov is the U.S. government's official web portal to all federal, state and local government web resources and services.